Weather in Smirnovka

Russia / Omsk Oblast     55°28′44″N   74°50′06″E
temp.,
°C
wind,
m/s
gust,
m/s
humid.,
%
clouds,
%
prec.,
mm/h
press.,
hPa
HPBL,
m
6 may, thu
thu600:00+12sse412575 0.0 1007206
03:00+11sse5135517 0.0 1004204
06:00+11s412580 0.0 1003185
09:00+18s7133938 0.0 1001407
12:00+24ssw8112823 0.0 999949
15:00+23wnw81038100 0.0 10011673
18:00+19wnw810340 0.0 10041719
21:00+15wnw511420 0.0 1007333
7 may, fri
fri700:00+11wnw511464 0.0 1009274
03:00+9wnw412552 0.0 1011374
06:00+7w410604 0.0 1013284
09:00+10wnw810445 0.0 10151446
12:00+13wnw810375 0.0 10161673
15:00+15wnw911320 0.0 10171616
18:00+16wnw711300 0.0 10181527
21:00+11w49435 0.0 1020146
8 may, sat
sat800:00+10w37480 0.0 1021101
03:00+9wsw36540 0.0 102281
06:00+8w37615 0.0 1022106
09:00+15w56425 0.0 1022392
12:00+20w56325 0.0 10211626
15:00+22wnw55275 0.0 10201993
18:00+22wnw3428100 0.0 10191951
21:00+17w113999 0.0 101911
9 may, sun
sun900:00+15sse1141100 0.0 101911
03:00+13ese224991 0.0 101911
06:00+12e3554100 0.0 101981
09:00+17ese4641100 0.0 1018362
12:00+22se6730100 0.0 10182352
15:00+20e6833100 0.0 10172072
18:00+17ene3548100 0.3 1017170
21:00+15se51056100 0.1 1018616
10 may, mon
mon1000:00+15se61356100 0.6 1018686
03:00+14ene3665100 0.1 1017160
06:00+13ene51163100 0.1 1018428
09:00+14e61053100 0.0 1019677
12:00+17ene6841100 0.0 10191529
15:00+19ne673264 0.0 10181968
18:00+19ne67261 0.0 10172275
21:00+14nne46410 0.0 101892